Location: New Orleans
(29.9540°N, 90.0750°W)
Time: 17:34:19
(UTC-05:00)

Hubble Space Telescope - Visible Passes

Search period start: 11 August 2020 00:00
Search period end: 21 August 2020 00:00
Orbit: 536 x 540 km, 28.5° (Epoch: 11 August)

Date Brightness Start Highest point End Pass type
(mag) Time Alt. Az. Time Alt. Az. Time Alt. Az.
11 Aug 3.6 03:49:11 12° ESE 03:49:11 12° ESE 03:49:34 10° ESE visible
11 Aug 0.9 05:24:31 21° WSW 05:27:03 59° S 05:31:08 10° E visible
12 Aug 3.8 03:39:03 10° E 03:39:03 10° E 03:39:03 10° E visible
12 Aug 0.8 05:14:22 28° WSW 05:16:21 65° S 05:20:27 10° E visible
13 Aug 0.7 05:04:14 39° WSW 05:05:38 70° S 05:09:45 10° E visible
14 Aug 0.7 04:54:08 54° WSW 04:54:57 72° S 04:59:04 10° E visible
15 Aug 0.6 04:44:06 72° SSW 04:44:14 73° S 04:48:21 10° E visible
16 Aug 1.0 04:34:07 60° SE 04:34:07 60° SE 04:37:39 10° E visible
17 Aug 1.8 04:24:14 39° ESE 04:24:14 39° ESE 04:26:56 10° ESE visible
17 Aug 1.6 06:00:03 10° W 06:03:50 35° SSW 06:07:37 10° SE visible
18 Aug 2.6 04:14:27 24° ESE 04:14:27 24° ESE 04:16:13 10° ESE visible
18 Aug 1.8 05:49:49 12° WSW 05:53:04 29° SSW 05:56:41 10° SE visible
19 Aug 3.4 04:04:48 14° ESE 04:04:48 14° ESE 04:05:28 10° ESE visible
19 Aug 2.0 05:40:10 16° WSW 05:42:18 24° SSW 05:45:40 10° SSE visible
20 Aug 2.2 05:30:38 18° SW 05:31:32 20° SSW 05:34:32 10° SSE visible
